Meteo pe oră la Bolshie Negnovichi

Astăzi, 10 Mai, Luni

Timp Temperatura Precipitaţii Vânt Presiune Umiditate
00:00 +4°C° 0 mm 2 m/s 752 mmHg 70%
01:00 +3°C° 0 mm 3 m/s 752 mmHg 72%
02:00 +3°C° 0 mm 3 m/s 752 mmHg 73%
03:00 +3°C° 0 mm 3 m/s 752 mmHg 72%
04:00 +3°C° 0 mm 3 m/s 753 mmHg 71%
05:00 +3°C° 0 mm 3 m/s 753 mmHg 71%
06:00 +5°C° 0 mm 3 m/s 753 mmHg 67%
07:00 +8°C° 0 mm 3 m/s 753 mmHg 63%
08:00 +10°C° 0 mm 4 m/s 753 mmHg 59%
09:00 +11°C° 0 mm 4 m/s 753 mmHg 55%
10:00 +13°C° 0 mm 4 m/s 753 mmHg 52%
11:00 +15°C° 0 mm 4 m/s 753 mmHg 48%
12:00 +15°C° 0 mm 4 m/s 753 mmHg 47%
13:00 +17°C° 0 mm 4 m/s 753 mmHg 47%
14:00 +18°C° 0 mm 4 m/s 753 mmHg 46%
15:00 +18°C° 0 mm 3 m/s 753 mmHg 48%
16:00 +17°C° 0 mm 3 m/s 752 mmHg 50%
17:00 +17°C° 0 mm 3 m/s 752 mmHg 52%
18:00 +14°C° 0 mm 3 m/s 752 mmHg 60%
19:00 +12°C° 0 mm 3 m/s 753 mmHg 67%
20:00 +10°C° 0 mm 3 m/s 753 mmHg 74%
21:00 +9°C° 0 mm 3 m/s 753 mmHg 75%
22:00 +9°C° 0 mm 3 m/s 753 mmHg 77%
23:00 +8°C° 0 mm 2 m/s 753 mmHg 78%

Mâine, 11 Mai, Marţi

Timp Temperatura Precipitaţii Vânt Presiune Umiditate
00:00 +7°C° 0 mm 2 m/s 753 mmHg 78%
01:00 +7°C° 0 mm 2 m/s 753 mmHg 78%
02:00 +6°C° 0 mm 2 m/s 753 mmHg 77%
03:00 +6°C° 0 mm 2 m/s 753 mmHg 77%
04:00 +6°C° 0 mm 2 m/s 753 mmHg 77%
05:00 +6°C° 0 mm 2 m/s 753 mmHg 77%
06:00 +8°C° 0 mm 2 m/s 753 mmHg 70%
07:00 +10°C° 0 mm 3 m/s 753 mmHg 63%
08:00 +12°C° 0 mm 3 m/s 754 mmHg 56%
09:00 +13°C° 0 mm 3 m/s 753 mmHg 51%
10:00 +16°C° 0 mm 3 m/s 753 mmHg 46%
11:00 +17°C° 0 mm 3 m/s 753 mmHg 41%
12:00 +18°C° 0 mm 4 m/s 752 mmHg 40%
13:00 +18°C° 0 mm 4 m/s 752 mmHg 39%
14:00 +19°C° 0 mm 4 m/s 752 mmHg 38%
15:00 +19°C° 0 mm 4 m/s 751 mmHg 43%
16:00 +19°C° 0 mm 3 m/s 751 mmHg 47%
17:00 +18°C° 0 mm 3 m/s 751 mmHg 52%
18:00 +17°C° 0 mm 3 m/s 751 mmHg 61%
19:00 +14°C° 0 mm 3 m/s 751 mmHg 71%
20:00 +12°C° 0 mm 3 m/s 750 mmHg 80%
21:00 +11°C° 0 mm 3 m/s 750 mmHg 84%
22:00 +11°C° 0 mm 3 m/s 750 mmHg 87%
23:00 +11°C° 0 mm 3 m/s 750 mmHg 91%

Poimâine, 12 Mai, Miercuri

Timp Temperatura Precipitaţii Vânt Presiune Umiditate
00:00 +11°C° 0 mm 3 m/s 750 mmHg 92%
01:00 +10°C° 0 mm 3 m/s 750 mmHg 94%
02:00 +10°C° 0 mm 3 m/s 750 mmHg 95%
03:00 +10°C° 0 mm 3 m/s 750 mmHg 95%
04:00 +10°C° 0 mm 3 m/s 750 mmHg 95%
05:00 +8°C° 0 mm 4 m/s 751 mmHg 95%
06:00 +10°C° 0 mm 4 m/s 751 mmHg 85%
07:00 +11°C° 0 mm 4 m/s 751 mmHg 75%
08:00 +12°C° 0 mm 5 m/s 751 mmHg 65%
09:00 +13°C° 0 mm 5 m/s 751 mmHg 61%
10:00 +14°C° 0 mm 4 m/s 750 mmHg 57%
11:00 +15°C° 0 mm 4 m/s 750 mmHg 52%
12:00 +17°C° 0 mm 4 m/s 749 mmHg 51%
13:00 +17°C° 0 mm 4 m/s 749 mmHg 49%
14:00 +18°C° 0 mm 4 m/s 749 mmHg 48%
15:00 +15°C° 0.1 mm 4 m/s 748 mmHg 56%
16:00 +14°C° 0.1 mm 4 m/s 747 mmHg 65%
17:00 +12°C° 0.1 mm 3 m/s 747 mmHg 73%
18:00 +11°C° 0.4 mm 3 m/s 746 mmHg 79%
19:00 +10°C° 0.4 mm 2 m/s 745 mmHg 85%
20:00 +10°C° 0.4 mm 1 m/s 744 mmHg 91%
21:00 +9°C° 1.2 mm 2 m/s 743 mmHg 93%
22:00 +9°C° 1.2 mm 2 m/s 742 mmHg 95%
23:00 +9°C° 1.2 mm 2 m/s 742 mmHg 97%

13 Mai, Joi

Timp Temperatura Precipitaţii Vânt Presiune Umiditate
00:00 +9°C° 2.4 mm 3 m/s 742 mmHg 97%
01:00 +8°C° 2.4 mm 4 m/s 741 mmHg 97%
02:00 +8°C° 2.4 mm 6 m/s 741 mmHg 97%
03:00 +8°C° 1.9 mm 5 m/s 741 mmHg 96%
04:00 +7°C° 1.9 mm 5 m/s 742 mmHg 95%
05:00 +7°C° 1.9 mm 5 m/s 742 mmHg 95%
06:00 +7°C° 1.1 mm 5 m/s 742 mmHg 95%
07:00 +7°C° 1.1 mm 5 m/s 742 mmHg 95%
08:00 +7°C° 1.1 mm 4 m/s 742 mmHg 95%
09:00 +7°C° 0.5 mm 4 m/s 742 mmHg 94%
10:00 +8°C° 0.5 mm 4 m/s 743 mmHg 94%
11:00 +8°C° 0.5 mm 4 m/s 743 mmHg 93%
12:00 +9°C° 0.2 mm 5 m/s 743 mmHg 88%
13:00 +12°C° 0.2 mm 5 m/s 742 mmHg 82%
14:00 +13°C° 0.2 mm 6 m/s 742 mmHg 77%
15:00 +13°C° 0.1 mm 6 m/s 742 mmHg 75%
16:00 +13°C° 0.1 mm 5 m/s 742 mmHg 73%
17:00 +13°C° 0.1 mm 5 m/s 742 mmHg 72%
18:00 +13°C° 0 mm 5 m/s 742 mmHg 74%
19:00 +12°C° 0 mm 5 m/s 743 mmHg 76%
20:00 +12°C° 0 mm 5 m/s 743 mmHg 78%
21:00 +12°C° 0 mm 5 m/s 743 mmHg 80%
22:00 +11°C° 0 mm 4 m/s 743 mmHg 81%
23:00 +11°C° 0 mm 4 m/s 742 mmHg 82%

14 Mai, Vineri

Timp Temperatura Precipitaţii Vânt Presiune Umiditate
00:00 +10°C° 0 mm 4 m/s 742 mmHg 83%
01:00 +10°C° 0 mm 4 m/s 742 mmHg 85%
02:00 +10°C° 0 mm 3 m/s 742 mmHg 86%
03:00 +10°C° 0.1 mm 4 m/s 741 mmHg 87%
04:00 +11°C° 0.1 mm 4 m/s 741 mmHg 88%
05:00 +10°C° 0.1 mm 5 m/s 741 mmHg 89%
06:00 +10°C° 0.4 mm 5 m/s 740 mmHg 91%
07:00 +12°C° 0.4 mm 5 m/s 740 mmHg 93%
08:00 +12°C° 0.4 mm 5 m/s 740 mmHg 95%
09:00 +13°C° 0.1 mm 5 m/s 740 mmHg 92%
10:00 +14°C° 0.1 mm 4 m/s 740 mmHg 90%
11:00 +14°C° 0.1 mm 4 m/s 740 mmHg 87%
12:00 +15°C° 0.2 mm 4 m/s 740 mmHg 85%
13:00 +15°C° 0.2 mm 4 m/s 740 mmHg 83%
14:00 +17°C° 0.2 mm 3 m/s 740 mmHg 81%
15:00 +16°C° 0.6 mm 3 m/s 740 mmHg 83%
16:00 +16°C° 0.6 mm 3 m/s 740 mmHg 84%
17:00 +16°C° 0.6 mm 3 m/s 740 mmHg 85%
18:00 +14°C° 0 mm 3 m/s 740 mmHg 88%
19:00 +13°C° 0 mm 3 m/s 740 mmHg 92%
20:00 +13°C° 0 mm 2 m/s 740 mmHg 95%
21:00 +13°C° 0 mm 2 m/s 741 mmHg 95%
22:00 +12°C° 0 mm 2 m/s 741 mmHg 96%
23:00 +12°C° 0 mm 2 m/s 741 mmHg 96%

15 Mai, Sâmbătă

Timp Temperatura Precipitaţii Vânt Presiune Umiditate
00:00 +12°C° 0 mm 2 m/s 741 mmHg 96%
01:00 +11°C° 0 mm 1 m/s 741 mmHg 97%
02:00 +11°C° 0 mm 1 m/s 741 mmHg 97%
03:00 +11°C° 0 mm 1 m/s 741 mmHg 97%
04:00 +11°C° 0 mm 1 m/s 742 mmHg 97%
05:00 +10°C° 0 mm 1 m/s 742 mmHg 97%
06:00 +12°C° 0 mm 1 m/s 742 mmHg 93%
07:00 +13°C° 0 mm 1 m/s 742 mmHg 89%
08:00 +15°C° 0 mm 1 m/s 742 mmHg 84%
09:00 +16°C° 0.1 mm 1 m/s 742 mmHg 78%
10:00 +19°C° 0.1 mm 1 m/s 742 mmHg 72%
11:00 +20°C° 0.1 mm 1 m/s 743 mmHg 65%
12:00 +20°C° 0.4 mm 1 m/s 742 mmHg 65%
13:00 +21°C° 0.4 mm 1 m/s 742 mmHg 64%
14:00 +21°C° 0.4 mm 1 m/s 742 mmHg 63%
15:00 +21°C° 0.4 mm 1 m/s 742 mmHg 64%
16:00 +21°C° 0.4 mm 1 m/s 742 mmHg 65%
17:00 +21°C° 0.4 mm 1 m/s 742 mmHg 67%
18:00 +19°C° 0.5 mm 1 m/s 742 mmHg 74%
19:00 +16°C° 0.5 mm 1 m/s 742 mmHg 80%
20:00 +15°C° 0.5 mm 1 m/s 742 mmHg 87%
21:00 +14°C° 0.4 mm 1 m/s 742 mmHg 89%
22:00 +13°C° 0.4 mm 1 m/s 742 mmHg 91%
23:00 +13°C° 0.4 mm 1 m/s 742 mmHg 93%
Arată mai mult

Formular de consimțământ

Meteoprog și furnizorii noștri de servicii pot stoca și accesa date personale, precum cookies, identificatori de dispozitiv sau alte tehnologii similare pe dispozitivul dumneavoastră și procesa astfel de date pentru a personaliza conținutul și reclamele, dar și pentru a oferi caracteristici de social media și pentru a analiza traficul.

  • Stocarea și/sau accesarea informațiilor pe dispozitivul dumneavoastră

    Cookies, identificatori de dispozitiv sau alte informații pot fi stocate sau accesate pe dispozitiv în scopurile indicate mai sus.

  • Reclame și conținut personalizat, evaluarea reclamelor și a conținutului, informații despre audiențe și dezvoltarea produselor

    Reclamele și conținutul pot fi personalizate pe baza unui profil. Pot fi adăugate date suplimentare pentru a personaliza mai bine reclamele și conținutul. Performanța reclamelor și conținutului poate fi măsurată. Pot fi obținute informații despre utilizatorii care au văzut reclamele și conținutul. Aceste date pot fi utilizate pentru a dezvolta sau îmbunătăți experiența utilizatorilor, sistemele și software-ul.

Dând clic pe ‘Sunt de acord’, permiteți utilizarea cookie-urilor menționate, a identificatorilor de dispozitiv, balizelor web sau altor tehnologii similare. Setările pot fi modificate din browser-ul dispozitivului dumneavoastră.

În anumite scopuri, interesele legitime pot prima asupra consimțământului. Puteți citi mai multe informații în acest sens în Politica privind Confidențialitatea Datelor și Cookie.